Weather History for Lancaster, OH

Change the Weather History Date:

Sunday, September 8, 2013

  Actual Average Record
Temperature  
Mean Temperature 74 °F -  
Max Temperature 84 °F 80 °F 100 °F (1939)
Min Temperature 64 °F 55 °F 35 °F (1956)
Cooling Degree Days 9    
Growing Degree Days 24 (Base 50)    
Moisture  
Dew Point 65 °F    
Average Humidity 73    
Maximum Humidity 93    
Minimum Humidity 55    
Precipitation  
Precipitation 0.00 in - - ()
Sea Level Pressure  
Sea Level Pressure 29.98 in    
Wind  
Wind Speed 2 mph (NNE)    
Max Wind Speed 10 mph    
Max Gust Speed -    
Visibility 9 miles    
Events      
Averages and records for this station are not official NWS values.
T = Trace of Precipitation, MM = Missing Value Source: NWS Daily Summary

Daily Weather History Graph

Daily Weather History Graph

Search for Another Location

Airport:

Trip Planner

Search our weather history database for the weather conditions in past years. The results will help you decide how hot, cold, wet, or windy it might be!

Date:

Astronomy

Sep. 08, 2013 Rise Set
Actual Time 7:05 AM EDT 7:50 PM EDT
Civil Twilight 6:38 AM EDT 8:17 PM EDT
Nautical Twilight 6:05 AM EDT 8:49 PM EDT
Astronomical Twilight 5:32 AM EDT 9:23 PM EDT
Moon 10:21 AM EDT (9/8) 9:25 PM EDT (9/8)
Length of Visible Light 13h 39m
Length of Day
12h 44m
Waxing Crescent, 11% of the Moon is Illuminated
Sep 8
Waxing Crescent
Sep 12
First Quarter
Sep 19
Full
Sep 26
Last Quarter
Oct 4
New

Hourly Weather History & Observations

Time (EDT) Temp. Heat Index Dew Point Humidity Pressure Visibility Wind Dir Wind Speed Gust Speed Precip Events Conditions
12:53 AM 69.1 °F - 62.1 °F 78% 29.96 in 10.0 mi Calm Calm - N/A   Overcast
1:53 AM 71.1 °F - 62.1 °F 73% 29.96 in 10.0 mi Calm Calm - N/A   Scattered Clouds
2:53 AM 69.1 °F - 63.0 °F 81% 29.95 in 10.0 mi Calm Calm - N/A   Mostly Cloudy
3:53 AM 70.0 °F - 63.0 °F 78% 29.94 in 10.0 mi Calm Calm - N/A   Mostly Cloudy
4:53 AM 66.9 °F - 63.0 °F 87% 29.94 in 10.0 mi Calm Calm - N/A   Mostly Cloudy
5:53 AM 64.0 °F - 62.1 °F 93% 29.95 in 7.0 mi Calm Calm - N/A   Overcast
6:53 AM 64.9 °F - 63.0 °F 93% 29.96 in 6.0 mi Calm Calm - N/A   Overcast
7:53 AM 68.0 °F - 64.9 °F 90% 29.98 in 5.0 mi Calm Calm - N/A   Overcast
8:53 AM 71.1 °F - 64.9 °F 81% 29.98 in 6.0 mi Calm Calm - N/A   Haze
9:53 AM 77.0 °F - 64.9 °F 66% 29.98 in 9.0 mi North 4.6 mph - N/A   Mostly Cloudy
10:53 AM 79.0 °F - 66.0 °F 64% 29.99 in 10.0 mi Variable 5.8 mph - N/A   Partly Cloudy
11:53 AM 81.0 °F 83.0 °F 66.0 °F 60% 29.99 in 10.0 mi NNW 4.6 mph - N/A   Clear
12:53 PM 82.9 °F 85.4 °F 66.9 °F 58% 29.99 in 10.0 mi North 6.9 mph - N/A   Clear
1:53 PM 81.0 °F 83.3 °F 66.9 °F 62% 29.99 in 10.0 mi NE 9.2 mph - N/A   Mostly Cloudy
2:53 PM 82.9 °F 85.8 °F 68.0 °F 60% 29.99 in 9.0 mi NNE 10.4 mph - N/A   Mostly Cloudy
3:53 PM 82.9 °F 85.8 °F 68.0 °F 60% 29.96 in 8.0 mi NE 6.9 mph - N/A   Scattered Clouds
4:11 PM 84.2 °F 86.6 °F 66.2 °F 55% 29.98 in 9.0 mi North 8.1 mph - N/A   Mostly Cloudy
4:41 PM 82.4 °F 84.6 °F 66.2 °F 58% 29.99 in 9.0 mi North 6.9 mph - N/A   Mostly Cloudy
4:53 PM 82.0 °F 84.5 °F 66.9 °F 60% 29.97 in 9.0 mi NNE 6.9 mph - N/A   Mostly Cloudy
5:53 PM 82.0 °F 84.1 °F 66.0 °F 58% 29.96 in 9.0 mi North 8.1 mph - N/A   Mostly Cloudy
6:53 PM 78.1 °F - 66.9 °F 68% 29.98 in 10.0 mi NNE 5.8 mph - N/A   Clear
7:53 PM 73.0 °F - 66.0 °F 79% 29.99 in 10.0 mi NE 6.9 mph - N/A   Clear
8:53 PM 71.1 °F - 64.9 °F 81% 30.01 in 10.0 mi ENE 4.6 mph - N/A   Clear
9:53 PM 66.9 °F - 64.0 °F 90% 30.03 in 9.0 mi Calm Calm - N/A   Clear
10:53 PM 66.0 °F - 63.0 °F 90% 30.03 in 9.0 mi Calm Calm - N/A   Clear
11:53 PM 66.0 °F - 62.1 °F 87% 30.03 in 10.0 mi Calm Calm - N/A   Clear